Location: Newark
(30.0333°N, 31.2167°E)
Time: 01:21:13
(UTC+00:00)

Tiros 1 - Pass Details

Date: 01 February 2020
Orbit: 631 x 664 km, 48.4° (Epoch: 21 February)

Event Time Altitude Azimuth Distance (km) Brightness Sun altitude
Rises 15:47:56 0° 296° (WNW) 2,970 11.4 -4.2°
Reaches altitude 10° 15:50:40 10° 282° (WNW) 2,062 10.9 -4.7°
Maximum altitude 15:54:22 23° 230° (SW) 1,407 9.9 -5.5°
Drops below altitude 10° 15:58:04 10° 179° (S) 2,065 10.0 -6.3°
Sets 16:00:49 0° 165° (SSE) 2,976 10.6 -6.8°
